• In Deutschland
  • Länderverzeichnis
  • Für 7 Tage
  • Wassertemperatur
  • Satellitenkarten
  • Wetterkarte
  • Widgets
  • user-avatar
    Anmelden

    Stündliche Wetter Lusaka

    Heute, 22 September, Samstag

    Zeit Temperatur Niederschläge Wind Luftdruck Luftfeuchtigkeit
    00:00 +25°C° 0 mm 3 m/S 658 mmHg 40%
    01:00 +23°C° 0 mm 4 m/S 658 mmHg 41%
    02:00 +23°C° 0 mm 4 m/S 657 mmHg 42%
    03:00 +22°C° 0 mm 4 m/S 657 mmHg 43%
    04:00 +22°C° 0 mm 4 m/S 657 mmHg 44%
    05:00 +21°C° 0 mm 4 m/S 657 mmHg 46%
    06:00 +22°C° 0 mm 5 m/S 658 mmHg 42%
    07:00 +23°C° 0 mm 5 m/S 659 mmHg 38%
    08:00 +25°C° 0 mm 5 m/S 659 mmHg 35%
    09:00 +28°C° 0 mm 5 m/S 660 mmHg 30%
    10:00 +30°C° 0 mm 5 m/S 660 mmHg 25%
    11:00 +33°C° 0 mm 5 m/S 661 mmHg 20%
    12:00 +34°C° 0 mm 5 m/S 660 mmHg 18%
    13:00 +34°C° 0 mm 4 m/S 659 mmHg 17%
    14:00 +35°C° 0 mm 4 m/S 659 mmHg 15%
    15:00 +34°C° 0 mm 4 m/S 658 mmHg 16%
    16:00 +34°C° 0 mm 4 m/S 658 mmHg 16%
    17:00 +33°C° 0 mm 4 m/S 658 mmHg 17%
    18:00 +30°C° 0 mm 4 m/S 658 mmHg 19%
    19:00 +28°C° 0 mm 3 m/S 658 mmHg 22%
    20:00 +26°C° 0 mm 3 m/S 658 mmHg 24%
    21:00 +26°C° 0 mm 3 m/S 658 mmHg 25%
    22:00 +25°C° 0 mm 3 m/S 658 mmHg 25%
    23:00 +25°C° 0 mm 3 m/S 659 mmHg 25%

    Morgen, 23 September, Sonntag

    Zeit Temperatur Niederschläge Wind Luftdruck Luftfeuchtigkeit
    00:00 +24°C° 0 mm 3 m/S 658 mmHg 26%
    01:00 +24°C° 0 mm 3 m/S 658 mmHg 27%
    02:00 +22°C° 0 mm 3 m/S 658 mmHg 28%
    03:00 +22°C° 0 mm 3 m/S 658 mmHg 29%
    04:00 +21°C° 0 mm 3 m/S 658 mmHg 31%
    05:00 +20°C° 0 mm 3 m/S 658 mmHg 33%
    06:00 +22°C° 0 mm 4 m/S 658 mmHg 31%
    07:00 +23°C° 0 mm 4 m/S 659 mmHg 30%
    08:00 +25°C° 0 mm 5 m/S 660 mmHg 29%
    09:00 +28°C° 0 mm 5 m/S 660 mmHg 25%
    10:00 +30°C° 0 mm 5 m/S 660 mmHg 21%
    11:00 +33°C° 0 mm 5 m/S 661 mmHg 18%
    12:00 +34°C° 0 mm 5 m/S 660 mmHg 16%
    13:00 +35°C° 0 mm 4 m/S 659 mmHg 15%
    14:00 +35°C° 0 mm 4 m/S 659 mmHg 13%
    15:00 +35°C° 0 mm 4 m/S 658 mmHg 13%
    16:00 +34°C° 0 mm 4 m/S 658 mmHg 14%
    17:00 +33°C° 0 mm 4 m/S 657 mmHg 15%
    18:00 +30°C° 0 mm 4 m/S 657 mmHg 17%
    19:00 +28°C° 0 mm 3 m/S 657 mmHg 19%
    20:00 +26°C° 0 mm 3 m/S 657 mmHg 22%
    21:00 +26°C° 0 mm 3 m/S 658 mmHg 23%
    22:00 +25°C° 0 mm 3 m/S 658 mmHg 25%
    23:00 +24°C° 0 mm 3 m/S 658 mmHg 26%

    übermorgen, 24 September, Montag

    Zeit Temperatur Niederschläge Wind Luftdruck Luftfeuchtigkeit
    00:00 +24°C° 0 mm 3 m/S 658 mmHg 28%
    01:00 +22°C° 0 mm 3 m/S 657 mmHg 31%
    02:00 +22°C° 0 mm 3 m/S 657 mmHg 33%
    03:00 +21°C° 0 mm 3 m/S 657 mmHg 37%
    04:00 +21°C° 0 mm 3 m/S 656 mmHg 40%
    05:00 +20°C° 0 mm 3 m/S 656 mmHg 44%
    06:00 +22°C° 0 mm 4 m/S 657 mmHg 42%
    07:00 +23°C° 0 mm 4 m/S 658 mmHg 40%
    08:00 +25°C° 0 mm 5 m/S 659 mmHg 38%
    09:00 +27°C° 0 mm 5 m/S 659 mmHg 33%
    10:00 +30°C° 0 mm 4 m/S 659 mmHg 28%
    11:00 +33°C° 0 mm 4 m/S 660 mmHg 23%
    12:00 +34°C° 0 mm 4 m/S 659 mmHg 21%
    13:00 +35°C° 0 mm 3 m/S 658 mmHg 18%
    14:00 +36°C° 0 mm 3 m/S 658 mmHg 15%
    15:00 +35°C° 0 mm 3 m/S 657 mmHg 16%
    16:00 +35°C° 0 mm 3 m/S 657 mmHg 17%
    17:00 +34°C° 0 mm 3 m/S 656 mmHg 17%
    18:00 +31°C° 0 mm 3 m/S 656 mmHg 20%
    19:00 +29°C° 0 mm 3 m/S 657 mmHg 23%
    20:00 +27°C° 0 mm 2 m/S 657 mmHg 27%
    21:00 +26°C° 0 mm 3 m/S 657 mmHg 28%
    22:00 +26°C° 0 mm 3 m/S 657 mmHg 29%
    23:00 +25°C° 0 mm 3 m/S 657 mmHg 31%

    25 September, Dienstag

    Zeit Temperatur Niederschläge Wind Luftdruck Luftfeuchtigkeit
    00:00 +25°C° 0 mm 3 m/S 657 mmHg 32%
    01:00 +24°C° 0 mm 3 m/S 656 mmHg 33%
    02:00 +24°C° 0 mm 3 m/S 656 mmHg 34%
    03:00 +24°C° 0 mm 3 m/S 656 mmHg 36%
    04:00 +22°C° 0 mm 3 m/S 656 mmHg 38%
    05:00 +22°C° 0 mm 3 m/S 656 mmHg 41%
    06:00 +23°C° 0 mm 4 m/S 657 mmHg 38%
    07:00 +26°C° 0 mm 4 m/S 658 mmHg 34%
    08:00 +27°C° 0 mm 5 m/S 659 mmHg 31%
    09:00 +29°C° 0 mm 5 m/S 659 mmHg 27%
    10:00 +32°C° 0 mm 4 m/S 659 mmHg 23%
    11:00 +34°C° 0 mm 4 m/S 659 mmHg 19%
    12:00 +36°C° 0 mm 3 m/S 659 mmHg 17%
    13:00 +37°C° 0 mm 3 m/S 658 mmHg 15%
    14:00 +38°C° 0 mm 2 m/S 657 mmHg 13%
    15:00 +37°C° 0 mm 2 m/S 657 mmHg 13%
    16:00 +37°C° 0 mm 3 m/S 657 mmHg 14%
    17:00 +36°C° 0 mm 3 m/S 656 mmHg 14%
    18:00 +34°C° 0 mm 3 m/S 656 mmHg 17%
    19:00 +30°C° 0 mm 3 m/S 657 mmHg 20%
    20:00 +28°C° 0 mm 2 m/S 657 mmHg 23%
    21:00 +28°C° 0 mm 3 m/S 657 mmHg 24%
    22:00 +27°C° 0 mm 3 m/S 657 mmHg 25%
    23:00 +26°C° 0 mm 3 m/S 657 mmHg 27%

    26 September, Mittwoch

    Zeit Temperatur Niederschläge Wind Luftdruck Luftfeuchtigkeit
    00:00 +26°C° 0 mm 3 m/S 657 mmHg 27%
    01:00 +26°C° 0 mm 3 m/S 656 mmHg 27%
    02:00 +25°C° 0 mm 3 m/S 656 mmHg 27%
    03:00 +25°C° 0 mm 3 m/S 656 mmHg 27%
    04:00 +25°C° 0 mm 3 m/S 656 mmHg 28%
    05:00 +24°C° 0 mm 3 m/S 656 mmHg 28%
    06:00 +26°C° 0 mm 4 m/S 657 mmHg 27%
    07:00 +27°C° 0 mm 4 m/S 658 mmHg 27%
    08:00 +28°C° 0 mm 5 m/S 659 mmHg 26%
    09:00 +32°C° 0 mm 5 m/S 659 mmHg 23%
    10:00 +34°C° 0 mm 4 m/S 659 mmHg 20%
    11:00 +36°C° 0 mm 4 m/S 659 mmHg 17%
    12:00 +37°C° 0 mm 4 m/S 659 mmHg 16%
    13:00 +38°C° 0 mm 4 m/S 658 mmHg 14%
    14:00 +39°C° 0 mm 3 m/S 657 mmHg 13%
    15:00 +38°C° 0 mm 4 m/S 657 mmHg 13%
    16:00 +37°C° 0 mm 4 m/S 657 mmHg 13%
    17:00 +37°C° 0 mm 4 m/S 656 mmHg 14%
    18:00 +34°C° 0 mm 3 m/S 656 mmHg 16%
    19:00 +31°C° 0 mm 3 m/S 657 mmHg 19%
    20:00 +29°C° 0 mm 2 m/S 657 mmHg 21%
    21:00 +28°C° 0 mm 2 m/S 657 mmHg 21%
    22:00 +28°C° 0 mm 3 m/S 657 mmHg 21%
    23:00 +27°C° 0 mm 3 m/S 657 mmHg 21%

    27 September, Donnerstag

    Zeit Temperatur Niederschläge Wind Luftdruck Luftfeuchtigkeit
    00:00 +26°C° 0 mm 2 m/S 656 mmHg 22%
    01:00 +26°C° 0 mm 2 m/S 656 mmHg 23%
    02:00 +25°C° 0 mm 2 m/S 656 mmHg 24%
    03:00 +25°C° 0 mm 2 m/S 656 mmHg 26%
    04:00 +25°C° 0 mm 2 m/S 656 mmHg 27%
    05:00 +24°C° 0 mm 2 m/S 656 mmHg 29%
    06:00 +26°C° 0 mm 3 m/S 657 mmHg 28%
    07:00 +27°C° 0 mm 4 m/S 658 mmHg 28%
    08:00 +29°C° 0 mm 5 m/S 659 mmHg 27%
    09:00 +32°C° 0 mm 5 m/S 660 mmHg 25%
    10:00 +33°C° 0 mm 5 m/S 660 mmHg 23%
    11:00 +35°C° 0 mm 5 m/S 660 mmHg 21%
    12:00 +36°C° 0 mm 5 m/S 659 mmHg 20%
    13:00 +36°C° 0 mm 5 m/S 659 mmHg 19%
    14:00 +37°C° 0 mm 5 m/S 658 mmHg 17%
    15:00 +36°C° 0 mm 5 m/S 658 mmHg 18%
    16:00 +35°C° 0 mm 5 m/S 657 mmHg 19%
    17:00 +35°C° 0 mm 5 m/S 657 mmHg 20%
    18:00 +33°C° 0 mm 4 m/S 657 mmHg 22%
    19:00 +30°C° 0 mm 4 m/S 658 mmHg 24%
    20:00 +29°C° 0 mm 4 m/S 658 mmHg 27%
    21:00 +28°C° 0 mm 4 m/S 658 mmHg 28%
    22:00 +28°C° 0 mm 4 m/S 658 mmHg 30%
    23:00 +27°C° 0 mm 4 m/S 658 mmHg 32%
    Mehr zeigen